Location: Harwich
(41.6860°N, 70.0760°W)
Time: 19:59:11
(UTC-05:00)

Cosmos 2228 - Visible Passes

Search period start: 01 March 2015 00:00
Search period end: 11 March 2015 01:00
Orbit: 593 x 623 km, 82.5° (Epoch: 01 March)

Date Brightness Start Highest point End Pass type
(mag) Time Alt. Az. Time Alt. Az. Time Alt. Az.
01 Mar 6.5 04:47:46 10° NE 04:48:56 11° ENE 04:50:20 10° E visible
01 Mar 2.8 18:52:25 10° S 18:56:38 73° E 19:00:55 10° NNE visible
02 Mar 6.0 05:00:12 10° NNE 05:03:13 19° ENE 05:06:22 10° ESE visible
02 Mar 3.4 19:06:25 10° SSW 19:10:37 63° W 19:14:52 10° N visible
03 Mar 5.2 05:13:33 10° NNE 05:17:24 30° ENE 05:21:19 10° SE visible
03 Mar 4.6 19:20:45 10° SW 19:24:41 35° WNW 19:28:38 10° N visible
04 Mar 4.1 05:27:13 10° N 05:31:30 52° E 05:35:48 10° SSE visible
04 Mar 3.8 17:57:23 10° SSE 18:01:05 30° E 18:04:52 10° NNE visible
04 Mar 5.6 19:35:30 10° WSW 19:38:50 21° WNW 19:42:05 10° NNW visible
05 Mar 3.1 05:41:06 10° N 05:45:30 89° W 05:49:53 10° S visible
05 Mar 3.1 18:10:50 10° S 18:14:57 53° E 18:19:09 10° NNE visible
05 Mar 6.3 19:50:59 10° W 19:53:05 13° WNW 19:54:58 10° NW visible
06 Mar 6.3 04:19:02 10° NE 04:21:22 14° ENE 04:23:54 10° ESE visible
06 Mar 3.0 18:24:37 10° S 18:28:53 85° W 18:33:12 10° N visible
07 Mar 5.6 04:32:05 10° NNE 04:35:36 24° ENE 04:39:12 10° SE visible
07 Mar 4.1 18:38:46 10° SSW 18:42:53 47° WNW 18:47:03 10° N visible
08 Mar 4.6 05:45:36 10° N 05:49:43 39° ENE 05:53:53 10° SSE visible
08 Mar 5.3 19:53:16 10° SW 19:56:59 28° WNW 20:00:39 10° NNW visible
09 Mar 3.4 05:59:22 10° N 06:03:45 69° E 06:08:09 10° SSE visible
09 Mar 6.1 20:08:18 10° WSW 20:11:09 17° WNW 20:13:54 10° NNW visible
10 Mar 6.5 04:38:16 10° NE 04:39:27 11° ENE 04:40:54 10° E visible
10 Mar 3.0 06:13:19 10° NNW 06:17:42 68° W 06:22:04 10° S visible
